Date String (YYYY-MM-DD hh:mm:ss) UTC,Instrument flags,absolute air pressure of the measurement (hPa),sample flow rate (lpm),inlet stack bypass flow (lpm),air temperature of the measurement (°C),ambient temperature measured by the external sensor (°C),aerosol sample conditioner tube jacket temperature (°C),OPC LED temperature (°C),internal box temperature (°C),relative humidity of the measurement (%),span deviation,mass concentration of particles derived from Lorenz-Mie calculation of OPC scattering (μg/m³),mass concentration of particles derived from Lorenz-Mie calculation of OPC scattering (μg/m³),mass concentration of particles derived from Lorenz-Mie calculation of OPC scattering (μg/m³)
DateTimeUTC,F1_M11,P_M11,Q1_M11,Q2_M11,T1_M11,T2_M11,T3_M11,T4_M11,T5_M11,U1_M11,ZSPAN_M11,X0_M11,X2_M11,X1_M11
2023-11-15 08:00:00,SystemResetWarning,0832.6,5.00,000.00,027.2,026.0,000.0,035.6,028.6,8.7,0000.0,0006.75,0003.22,0002.77
2023-11-15 08:01:00,SystemResetWarning,0832.5,4.99,000.00,027.2,026.0,000.0,035.6,028.6,8.7,0000.0,0006.82,0003.23,0002.77
2023-11-15 08:02:00,SystemResetWarning,0832.5,5.00,000.00,027.2,026.0,000.0,035.6,028.6,8.6,0000.0,0006.32,0003.25,0002.79
2023-11-15 08:03:00,SystemResetWarning,0832.5,4.99,000.00,027.2,026.1,000.0,035.6,028.6,8.5,0000.0,0006.35,0003.27,0002.81
2023-11-15 08:04:00,SystemResetWarning,0832.5,5.00,000.00,027.2,026.1,000.0,035.6,028.6,8.6,0000.0,0006.36,0003.26,0002.81
2023-11-15 08:05:00,SystemResetWarning,0832.5,5.00,000.00,027.2,026.1,000.0,035.6,028.7,8.7,0000.0,0006.68,0003.25,0002.80
2023-11-15 08:06:00,SystemResetWarning,0832.6,5.00,000.00,027.2,026.1,000.0,035.6,028.6,8.4,0000.0,0007.82,0003.26,0002.80
2023-11-15 08:07:00,SystemResetWarning,0832.5,4.99,000.00,027.2,026.1,000.0,035.6,028.6,8.4,0000.0,0008.15,0003.26,0002.82
2023-11-15 08:08:00,SystemResetWarning,0832.6,5.00,000.00,027.2,026.1,000.0,035.6,028.6,8.6,0000.0,0008.15,0003.26,0002.83
2023-11-15 08:09:00,SystemResetWarning,0832.6,5.01,000.00,027.2,026.1,000.0,035.6,028.5,8.6,0000.0,0008.18,0003.28,0002.85
2023-11-15 08:10:00,SystemResetWarning,0832.5,5.01,000.00,027.2,026.0,000.0,035.6,028.5,8.6,0000.0,0008.08,0003.30,0002.87
2023-11-15 08:11:00,SystemResetWarning,0832.5,5.00,000.00,027.2,026.0,000.0,035.6,028.5,8.6,0000.0,0007.98,0003.32,0002.91
2023-11-15 08:12:00,SystemResetWarning,0832.6,5.00,000.00,027.2,026.0,000.0,035.6,028.5,8.2,0000.0,0007.96,0003.32,0002.95
2023-11-15 08:13:00,SystemResetWarning,0832.5,5.00,000.00,027.2,026.0,000.0,035.6,028.5,8.4,0000.0,0008.07,0003.33,0002.96
2023-11-15 08:14:00,SystemResetWarning,0832.5,5.00,000.00,027.2,026.0,000.0,035.6,028.6,8.6,0000.0,0008.01,0003.30,0002.95
2023-11-15 08:15:00,SystemResetWarning,0832.5,4.99,000.00,027.2,026.0,000.0,035.6,028.6,8.7,0000.0,0008.04,0003.29,0002.95
2023-11-15 08:16:00,SystemResetWarning,0832.5,4.99,000.00,027.2,025.9,000.0,035.6,028.6,8.7,0000.0,0007.80,0003.27,0002.92
2023-11-15 08:17:00,SystemResetWarning,0832.5,5.00,000.00,027.1,025.9,000.0,035.5,028.5,8.7,0000.0,0006.88,0003.24,0002.91
2023-11-15 08:18:00,SystemResetWarning,0832.5,5.01,000.00,027.1,025.9,000.0,035.5,028.5,8.6,0000.0,0005.72,0003.22,0002.88
2023-11-15 08:19:00,SystemResetWarning,0832.5,5.01,000.00,027.1,025.9,000.0,035.5,028.5,8.6,0000.0,0006.57,0003.21,0002.85
2023-11-15 08:20:00,SystemResetWarning,0832.5,5.01,000.00,027.1,025.9,000.0,035.5,028.4,8.6,0000.0,0006.51,0003.19,0002.83
2023-11-15 08:21:00,SystemResetWarning,0832.5,4.99,000.00,027.1,025.9,000.0,035.5,028.5,8.6,0000.0,0006.46,0003.19,0002.85
2023-11-15 08:22:00,SystemResetWarning,0832.6,4.99,000.00,027.1,025.9,000.0,035.5,028.5,8.5,0000.0,0006.35,0003.16,0002.83
2023-11-15 08:23:00,SystemResetWarning,0832.5,4.99,000.00,027.1,025.9,000.0,035.5,028.6,8.5,0000.0,0006.07,0003.14,0002.79
2023-11-15 08:24:00,SystemResetWarning,0832.5,5.00,000.00,027.1,026.0,000.0,035.5,028.5,8.5,0000.0,0005.84,0003.13,0002.76
2023-11-15 08:25:00,SystemResetWarning,0832.6,5.00,000.00,027.1,026.0,000.0,035.5,028.5,8.5,0000.0,0005.89,0003.13,0002.75
2023-11-15 08:26:00,SystemResetWarning,0832.5,5.00,000.00,027.1,026.0,000.0,035.5,028.5,8.5,0000.0,0005.77,0003.12,0002.74
2023-11-15 08:27:00,SystemResetWarning,0832.6,5.00,000.00,027.1,026.0,000.0,035.5,028.5,8.5,0000.0,0005.88,0003.13,0002.73
2023-11-15 08:28:00,SystemResetWarning,0832.5,5.00,000.00,027.1,026.0,000.0,035.5,028.5,8.4,0000.0,0006.77,0003.15,0002.72
2023-11-15 08:29:00,SystemResetWarning,0832.5,5.00,000.00,027.1,026.0,000.0,035.5,028.5,8.3,0000.0,0007.86,0003.16,0002.71
2023-11-15 08:30:00,SystemResetWarning,0832.6,4.99,000.00,027.1,026.0,000.0,035.5,028.5,8.2,0000.0,0007.70,0003.17,0002.70
2023-11-15 08:31:00,SystemResetWarning,0832.5,5.00,000.00,027.1,025.9,000.0,035.5,028.5,8.3,0000.0,0007.44,0003.17,0002.69
2023-11-15 08:32:00,SystemResetWarning,0832.5,5.00,000.00,027.1,025.9,000.0,035.5,028.5,8.3,0000.0,0007.43,0003.14,0002.66
2023-11-15 08:33:00,SystemResetWarning,0832.5,5.00,000.00,027.1,025.9,000.0,035.5,028.5,8.3,0000.0,0007.89,0003.13,0002.63
2023-11-15 08:34:00,SystemResetWarning,0832.4,5.00,000.00,027.1,025.9,000.0,035.5,028.5,8.2,0000.0,0008.19,0003.14,0002.63
2023-11-15 08:35:00,SystemResetWarning,0832.5,5.00,000.00,027.1,025.9,000.0,035.5,028.5,8.2,0000.0,0008.24,0003.14,0002.61
2023-11-15 08:36:00,SystemResetWarning,0832.5,4.99,000.00,027.1,025.9,000.0,035.5,028.4,8.2,0000.0,0008.12,0003.10,0002.58
2023-11-15 08:37:00,SystemResetWarning,0832.5,5.00,000.00,027.1,025.9,000.0,035.5,028.4,8.2,0000.0,0008.14,0003.11,0002.57
2023-11-15 08:38:00,SystemResetWarning,0832.5,5.01,000.00,027.1,025.9,000.0,035.5,028.4,8.1,0000.0,0008.32,0003.11,0002.57
2023-11-15 08:39:00,SystemResetWarning,0832.5,5.01,000.00,027.1,025.9,000.0,035.5,028.4,8.2,0000.0,0008.40,0003.07,0002.57
2023-11-15 08:40:00,SystemResetWarning,0832.5,5.00,000.00,027.0,025.9,000.0,035.5,028.4,8.3,0000.0,0006.45,0003.01,0002.55
2023-11-15 08:41:00,SystemResetWarning,0832.5,5.00,000.00,027.0,025.9,000.0,035.5,028.5,8.3,0000.0,0007.21,0002.94,0002.53
2023-11-15 08:42:00,SystemResetWarning,0832.6,4.99,000.00,027.0,025.9,000.0,035.5,028.4,8.3,0000.0,0007.33,0002.91,0002.49
2023-11-15 08:43:00,SystemResetWarning,0832.5,4.99,000.00,027.0,025.9,000.0,035.5,028.4,8.3,0000.0,0007.37,0002.91,0002.47
2023-11-15 08:44:00,SystemResetWarning,0832.5,5.00,000.00,027.0,025.9,000.0,035.5,028.4,8.3,0000.0,0006.93,0002.89,0002.45
2023-11-15 08:45:00,SystemResetWarning,0832.5,5.02,000.00,027.0,025.9,000.0,035.5,028.4,8.3,0000.0,0006.23,0002.90,0002.43
2023-11-15 08:46:00,SystemResetWarning,0832.5,4.99,000.00,027.0,025.9,000.0,035.4,028.4,8.2,0000.0,0006.52,0002.86,0002.41
2023-11-15 08:47:00,SystemResetWarning,0832.5,4.99,000.00,027.0,025.9,000.0,035.4,028.4,8.3,0000.0,0006.81,0002.86,0002.41
2023-11-15 08:48:00,SystemResetWarning,0832.5,4.99,000.00,027.0,025.9,000.0,035.4,028.4,8.3,0000.0,0007.66,0002.93,0002.42
2023-11-15 08:49:00,SystemResetWarning,0832.5,5.00,000.00,027.0,025.8,000.0,035.4,028.4,8.2,0000.0,0007.54,0002.91,0002.41
2023-11-15 08:50:00,SystemResetWarning,0832.5,5.00,000.00,027.0,025.8,000.0,035.4,028.4,8.2,0000.0,0007.20,0002.92,0002.40
2023-11-15 08:51:00,SystemResetWarning,0832.5,5.00,000.00,027.0,025.9,000.0,035.4,028.4,8.2,0000.0,0007.24,0002.94,0002.41
2023-11-15 08:52:00,SystemResetWarning,0832.5,5.00,000.00,027.0,025.9,000.0,035.4,028.4,8.1,0000.0,0006.63,0002.93,0002.42
2023-11-15 08:53:00,SystemResetWarning,0832.6,5.00,000.00,027.0,025.9,000.0,035.4,028.4,8.1,0000.0,0005.99,0002.95,0002.44
2023-11-15 08:54:00,SystemResetWarning,0832.6,5.01,000.00,027.0,025.9,000.0,035.4,028.4,8.1,0000.0,0006.00,0002.95,0002.46
2023-11-15 08:55:00,SystemResetWarning,0832.6,5.01,000.00,027.0,025.9,000.0,035.4,028.4,8.1,0000.0,0006.08,0002.98,0002.46
2023-11-15 08:56:00,SystemResetWarning,0832.7,5.00,000.00,027.0,025.9,000.0,035.4,028.5,8.1,0000.0,0006.46,0002.94,0002.45
2023-11-15 08:57:00,SystemResetWarning,0832.6,4.99,000.00,027.0,026.0,000.0,035.4,028.4,8.1,0000.0,0007.10,0002.95,0002.46
2023-11-15 08:58:00,SystemResetWarning,0832.7,4.99,000.00,027.0,026.0,000.0,035.4,028.4,8.1,0000.0,0007.87,0002.95,0002.47
2023-11-15 08:59:00,SystemResetWarning,0832.7,5.00,000.00,027.0,026.0,000.0,035.4,028.4,8.3,0000.0,0006.97,0002.87,0002.45
